Weather History for Hettinger, ND

Change the Weather History Date:

Saturday, March 8, 2014

  Actual Average Record
Temperature  
Mean Temperature 37 °F -  
Max Temperature 52 °F 38 °F 63 °F (2007)
Min Temperature 21 °F 16 °F -13 °F (2003)
Degree Days  
Heating Degree Days 28 38  
Month to date heating degree days 408 316  
Since 1 July heating degree days 7127 6632  
Cooling Degree Days 0 0  
Month to date cooling degree days 0 0  
Year to date cooling degree days 0 0  
Moisture  
Dew Point 26 °F    
Average Humidity 74    
Maximum Humidity 92    
Minimum Humidity 48    
Precipitation  
Precipitation 0.00 in 0.02 in 0.03 in (2005)
Month to date precipitation T 0.13  
Year to date precipitation 0.24 0.86  
Sea Level Pressure  
Sea Level Pressure 30.15 in    
Wind  
Wind Speed 9 mph (SSW)    
Max Wind Speed 16 mph    
Max Gust Speed 20 mph    
Visibility 9 miles    
Events      
T = Trace of Precipitation, MM = Missing Value Source: NWS Daily Summary

Daily Weather History Graph

Daily Weather History Graph

Search for Another Location

Airport:

Trip Planner

Search our weather history database for the weather conditions in past years. The results will help you decide how hot, cold, wet, or windy it might be!

Date:

Astronomy

Mar. 08, 2014 Rise Set
Actual Time 6:16 AM MST 5:46 PM MST
Civil Twilight 5:46 AM MST 6:16 PM MST
Nautical Twilight 5:12 AM MST 6:51 PM MST
Astronomical Twilight 4:37 AM MST 7:26 PM MST
Moon 10:39 AM MST (3/8) 1:06 AM MST (3/8)
Length of Visible Light 12h 30m
Length of Day
11h 30m
First Quarter, 52% of the Moon is Illuminated
Mar 8
First Quarter
Mar 16
Full
Mar 23
Last Quarter
Mar 30
New
Apr 7
First Quarter

Hourly Weather History & Observations

Time (MST) Temp. Windchill Dew Point Humidity Pressure Visibility Wind Dir Wind Speed Gust Speed Precip Events Conditions
12:53 AM 21.0 °F 9.3 °F 15.1 °F 78% 30.30 in 10.0 mi SE 11.5 mph - N/A   Overcast
1:53 AM 21.9 °F 11.7 °F 16.0 °F 78% 30.28 in 10.0 mi SE 9.2 mph - N/A   Overcast
2:53 AM 21.9 °F 12.5 °F 16.0 °F 78% 30.27 in 10.0 mi SSE 8.1 mph - N/A   Overcast
3:53 AM 23.0 °F 15.8 °F 18.0 °F 81% 30.27 in 10.0 mi SE 5.8 mph - N/A   Overcast
4:53 AM 23.0 °F 15.8 °F 18.0 °F 81% 30.29 in 10.0 mi SE 5.8 mph - N/A   Overcast
5:53 AM 24.1 °F 19.7 °F 19.0 °F 81% 30.28 in 10.0 mi SSE 3.5 mph - N/A   Overcast
6:26 AM 24.1 °F 18.2 °F 19.9 °F 84% 30.16 in 10.0 mi South 4.6 mph - N/A   Overcast
6:53 AM 24.1 °F 18.2 °F 19.9 °F 84% 30.28 in 10.0 mi South 4.6 mph - N/A   Overcast
7:20 AM 25.0 °F 18.1 °F 21.9 °F 88% 30.16 in 10.0 mi SW 5.8 mph - N/A   Overcast
7:53 AM 26.1 °F 17.6 °F 24.1 °F 92% 30.27 in 5.0 mi SSW 8.1 mph - N/A   Overcast
8:06 AM 26.1 °F 18.4 °F 24.1 °F 92% 30.16 in 1.8 mi SW 6.9 mph - N/A   Overcast
8:18 AM 27.0 °F 19.5 °F 25.0 °F 92% 30.16 in 3.0 mi SW 6.9 mph - N/A   Overcast
8:53 AM 30.0 °F - 26.1 °F 85% 30.26 in 10.0 mi Calm Calm - N/A   Scattered Clouds
9:53 AM 37.0 °F 30.4 °F 28.0 °F 70% 30.25 in 10.0 mi WSW 9.2 mph - N/A   Clear
10:53 AM 42.1 °F 37.1 °F 30.0 °F 62% 30.22 in 10.0 mi SW 8.1 mph - N/A   Clear
11:53 AM 45.0 °F 39.7 °F 32.0 °F 60% 30.19 in 10.0 mi SW 10.4 mph - N/A   Clear
12:53 PM 50.0 °F - 32.0 °F 50% 30.16 in 10.0 mi West 11.5 mph - N/A   Clear
1:53 PM 51.1 °F - 34.0 °F 52% 30.12 in 10.0 mi SW 11.5 mph - N/A   Clear
2:53 PM 51.1 °F - 32.0 °F 48% 30.10 in 10.0 mi SW 13.8 mph - N/A   Clear
3:53 PM 52.0 °F - 32.0 °F 47% 30.08 in 10.0 mi SW 13.8 mph - N/A   Clear
4:53 PM 46.0 °F 41.4 °F 34.0 °F 63% 30.08 in 10.0 mi SSW 9.2 mph - N/A   Clear
5:53 PM 39.9 °F 33.9 °F 32.0 °F 73% 30.08 in 10.0 mi SW 9.2 mph - N/A   Clear
6:53 PM 39.9 °F 33.4 °F 32.0 °F 73% 30.06 in 10.0 mi SSW 10.4 mph - N/A   Clear
7:53 PM 39.9 °F 32.5 °F 32.0 °F 73% 30.02 in 10.0 mi SSW 12.7 mph - N/A   Clear
8:53 PM 37.9 °F 30.9 °F 32.0 °F 79% 30.00 in 10.0 mi SW 10.4 mph - N/A   Clear
9:53 PM 39.0 °F 32.3 °F 32.0 °F 76% 29.96 in 10.0 mi SW 10.4 mph - N/A   Clear
10:53 PM 39.0 °F 32.8 °F 32.0 °F 76% 29.91 in 10.0 mi SSW 9.2 mph - N/A   Clear
11:53 PM 39.0 °F 34.8 °F 30.0 °F 70% 29.88 in 10.0 mi West 5.8 mph - N/A   Clear